RYR7HM EDFH-EPMO

Flight info

Callsign RYR7HM
Flight time 1h 28m
Altitude 37000
Route ABSIX DCT RUDUS DCT BOMBI DCT MASEK T278 TAMEB/N0455F310 T955 GOXLI DCT NAMUB T278 NOTGO L620 SULED DCT TADUV DCT KORUP DCT DIBLO DCT BIMPA
Aircraft B738/M-VGDW/C

Departure

Time 2026-05-07 04:56
Airport Frankfurt-Hahn Airport (EDFH)

Arrival

Time 2026-05-07 06:25
Airport Warsaw Modlin Airport (EPMO)
Time Latitude Longitude Altitude Speed Heading
2026-05-07 04:25 49.94796 7.26887 1616 ft 0 kts 212°
2026-05-07 04:47 49.94807 7.26898 1616 ft 2 kts 212°
2026-05-07 04:47 49.94821 7.26912 1621 ft 2 kts 213°
2026-05-07 04:47 49.94830 7.26921 1622 ft 0 kts 213°
2026-05-07 04:49 49.94828 7.26909 1622 ft 2 kts 259°
2026-05-07 04:50 49.94838 7.26889 1617 ft 3 kts 312°
2026-05-07 04:50 49.94859 7.26872 1621 ft 4 kts
2026-05-07 04:50 49.94898 7.26898 1621 ft 9 kts 33°
2026-05-07 04:50 49.94955 7.26955 1617 ft 10 kts 33°
2026-05-07 04:51 49.95011 7.27011 1619 ft 9 kts 32°
2026-05-07 04:51 49.95067 7.27064 1612 ft 9 kts 32°
2026-05-07 04:51 49.95126 7.27121 1609 ft 10 kts 33°
2026-05-07 04:51 49.95185 7.27180 1608 ft 10 kts 33°
2026-05-07 04:52 49.95243 7.27238 1606 ft 10 kts 33°
2026-05-07 04:52 49.95299 7.27295 1611 ft 10 kts 33°
2026-05-07 04:52 49.95355 7.27347 1605 ft 9 kts 31°
2026-05-07 04:52 49.95409 7.27399 1603 ft 9 kts 32°
2026-05-07 04:53 49.95467 7.27458 1607 ft 11 kts 32°
2026-05-07 04:53 49.95532 7.27523 1607 ft 11 kts 33°
2026-05-07 04:53 49.95603 7.27531 1610 ft 11 kts 334°
2026-05-07 04:53 49.95665 7.27466 1605 ft 10 kts 325°
2026-05-07 04:54 49.95724 7.27407 1598 ft 8 kts 321°
2026-05-07 04:54 49.95758 7.27333 1596 ft 8 kts 304°
2026-05-07 04:54 49.95772 7.27298 1598 ft 3 kts 300°
2026-05-07 04:54 49.95771 7.27267 1597 ft 3 kts 228°
2026-05-07 04:55 49.95749 7.27253 1597 ft 3 kts 211°
2026-05-07 04:55 49.95748 7.27251 1597 ft 0 kts 212°
2026-05-07 04:55 49.95729 7.27234 1596 ft 18 kts 212°
2026-05-07 04:55 49.95407 7.26916 1604 ft 92 kts 212°
2026-05-07 04:56 49.94679 7.26195 1616 ft 154 kts 213°
2026-05-07 04:56 49.93698 7.25221 2194 ft 168 kts 213°
2026-05-07 04:56 49.92673 7.24370 3247 ft 170 kts 210°
2026-05-07 04:56 49.91613 7.23508 4020 ft 174 kts 212°
2026-05-07 04:57 49.90567 7.22404 4631 ft 180 kts 219°
2026-05-07 04:57 49.89543 7.21228 5255 ft 193 kts 218°
2026-05-07 04:57 49.88387 7.19930 5449 ft 217 kts 217°
2026-05-07 04:57 49.87091 7.18523 5766 ft 234 kts 216°
2026-05-07 04:58 49.85718 7.17073 6405 ft 242 kts 216°
2026-05-07 04:58 49.84324 7.15635 7258 ft 240 kts 216°
2026-05-07 04:58 49.82923 7.14206 8033 ft 243 kts 215°
2026-05-07 04:58 49.81500 7.12764 8823 ft 245 kts 215°
2026-05-07 04:59 49.80067 7.11316 9634 ft 247 kts 215°
2026-05-07 04:59 49.78720 7.09711 10329 ft 249 kts 231°
2026-05-07 04:59 49.77948 7.07319 10983 ft 252 kts 257°
2026-05-07 04:59 49.77960 7.04591 11656 ft 260 kts 282°
2026-05-07 05:00 49.78799 7.02079 12276 ft 271 kts 309°
2026-05-07 05:00 49.80355 7.00366 12934 ft 283 kts 336°
2026-05-07 05:00 49.82319 6.99893 13601 ft 293 kts
2026-05-07 05:00 49.84326 7.00548 14210 ft 299 kts 22°
2026-05-07 05:01 49.85976 7.02505 14775 ft 304 kts 52°
2026-05-07 05:01 49.87239 7.05078 15426 ft 305 kts 53°
2026-05-07 05:01 49.88548 7.07705 16030 ft 309 kts 52°
2026-05-07 05:01 49.89901 7.10317 16661 ft 311 kts 51°
2026-05-07 05:02 49.91283 7.12920 17288 ft 314 kts 51°
2026-05-07 05:02 49.92688 7.15541 17907 ft 317 kts 51°
2026-05-07 05:02 49.93981 7.18325 18470 ft 319 kts 68°
2026-05-07 05:02 49.94511 7.21640 18904 ft 320 kts 91°
2026-05-07 05:03 49.94230 7.25139 19039 ft 334 kts 105°
2026-05-07 05:03 49.93684 7.28746 19169 ft 351 kts 107°
2026-05-07 05:03 49.93077 7.32512 19293 ft 368 kts 107°
2026-05-07 05:03 49.92443 7.36458 19405 ft 385 kts 107°
2026-05-07 05:04 49.91791 7.40588 19511 ft 401 kts 106°
2026-05-07 05:04 49.91127 7.44876 19612 ft 416 kts 106°
2026-05-07 05:04 49.90458 7.49248 19859 ft 426 kts 106°
2026-05-07 05:04 49.89771 7.53758 20317 ft 429 kts 106°
2026-05-07 05:05 49.89083 7.58268 20855 ft 430 kts 106°
2026-05-07 05:05 49.88384 7.62811 21328 ft 433 kts 106°
2026-05-07 05:05 49.87789 7.67370 21735 ft 441 kts 97°
2026-05-07 05:05 49.88039 7.72146 22129 ft 450 kts 77°
2026-05-07 05:06 49.89215 7.76663 22584 ft 455 kts 59°
2026-05-07 05:06 49.91089 7.80634 23056 ft 458 kts 52°
2026-05-07 05:06 49.93088 7.84504 23455 ft 461 kts 51°
2026-05-07 05:06 49.95106 7.88403 23791 ft 465 kts 52°
2026-05-07 05:07 49.97113 7.92351 24200 ft 466 kts 52°
2026-05-07 05:07 49.99097 7.96329 24637 ft 466 kts 53°
2026-05-07 05:07 50.01075 8.00332 25033 ft 467 kts 53°
2026-05-07 05:07 50.02908 8.04499 25364 ft 468 kts 63°
2026-05-07 05:08 50.04178 8.09095 25718 ft 467 kts 74°
2026-05-07 05:08 50.04910 8.13998 26086 ft 465 kts 85°
2026-05-07 05:08 50.05080 8.19010 26449 ft 464 kts 91°
2026-05-07 05:08 50.05112 8.24038 26797 ft 465 kts 92°
2026-05-07 05:09 50.05129 8.29091 27112 ft 467 kts 91°
2026-05-07 05:09 50.05158 8.34155 27416 ft 469 kts 91°
2026-05-07 05:09 50.05205 8.39244 27721 ft 471 kts 91°
2026-05-07 05:09 50.05264 8.44347 28026 ft 472 kts 91°
2026-05-07 05:10 50.05329 8.49460 28380 ft 472 kts 91°
2026-05-07 05:10 50.05394 8.54542 28861 ft 469 kts 91°
2026-05-07 05:10 50.05455 8.59600 29352 ft 466 kts 91°
2026-05-07 05:10 50.05514 8.64632 29776 ft 465 kts 91°
2026-05-07 05:11 50.05568 8.69657 30125 ft 464 kts 91°
2026-05-07 05:11 50.05761 8.74627 30357 ft 468 kts 81°
2026-05-07 05:11 50.06851 8.79446 30536 ft 474 kts 63°
2026-05-07 05:11 50.08753 8.83635 30816 ft 476 kts 46°
2026-05-07 05:12 50.11281 8.86965 31154 ft 476 kts 37°
2026-05-07 05:12 50.13939 8.90037 31445 ft 475 kts 36°
2026-05-07 05:12 50.16623 8.93069 31682 ft 477 kts 36°
2026-05-07 05:12 50.19308 8.96110 31949 ft 477 kts 36°
2026-05-07 05:13 50.21984 8.99176 32280 ft 476 kts 37°
2026-05-07 05:13 50.24620 9.02233 32585 ft 475 kts 37°
2026-05-07 05:13 50.27268 9.05336 32849 ft 475 kts 37°
2026-05-07 05:13 50.29913 9.08453 33093 ft 476 kts 37°
2026-05-07 05:14 50.31662 9.10521 33283 ft 475 kts 37°
2026-05-07 05:14 50.34296 9.13641 33583 ft 475 kts 37°
2026-05-07 05:14 50.36930 9.16763 33845 ft 474 kts 37°
2026-05-07 05:14 50.39565 9.19890 34050 ft 475 kts 37°
2026-05-07 05:15 50.42199 9.23019 34246 ft 475 kts 37°
2026-05-07 05:15 50.44841 9.26161 34461 ft 475 kts 37°
2026-05-07 05:15 50.47478 9.29301 34646 ft 475 kts 37°
2026-05-07 05:15 50.50110 9.32439 34824 ft 476 kts 38°
2026-05-07 05:16 50.52715 9.35549 35036 ft 475 kts 38°
2026-05-07 05:16 50.55344 9.38692 35250 ft 475 kts 38°
2026-05-07 05:16 50.57972 9.41840 35420 ft 475 kts 38°
2026-05-07 05:16 50.60607 9.45000 35573 ft 476 kts 38°
2026-05-07 05:17 50.63249 9.48174 35773 ft 476 kts 38°
2026-05-07 05:17 50.65879 9.51336 35979 ft 475 kts 38°
2026-05-07 05:17 50.68508 9.54503 36164 ft 475 kts 38°
2026-05-07 05:17 50.70953 9.58015 36269 ft 476 kts 50°
2026-05-07 05:18 50.72937 9.62175 36440 ft 474 kts 60°
2026-05-07 05:18 50.74456 9.66780 36613 ft 471 kts 71°
2026-05-07 05:18 50.75513 9.71670 36754 ft 470 kts 74°
2026-05-07 05:18 50.76470 9.76550 36871 ft 471 kts 75°
2026-05-07 05:19 50.78392 9.86507 36902 ft 474 kts 75°
2026-05-07 05:19 50.80360 9.96429 36899 ft 471 kts 74°
2026-05-07 05:20 50.82342 10.06278 36899 ft 469 kts 74°
2026-05-07 05:20 50.84312 10.16089 36899 ft 467 kts 74°
2026-05-07 05:21 50.87223 10.30717 36901 ft 466 kts 74°
2026-05-07 05:22 50.89165 10.40532 36897 ft 467 kts 75°
2026-05-07 05:22 50.91156 10.50329 36898 ft 468 kts 73°
2026-05-07 05:23 50.93253 10.60075 36890 ft 470 kts 73°
2026-05-07 05:23 50.95372 10.69923 36885 ft 472 kts 73°
2026-05-07 05:24 50.97479 10.79836 36887 ft 474 kts 73°
2026-05-07 05:24 50.99560 10.89727 36899 ft 475 kts 73°
2026-05-07 05:25 51.01646 10.99699 36877 ft 476 kts 73°
2026-05-07 05:25 51.03729 11.09705 36881 ft 476 kts 73°
2026-05-07 05:26 51.05802 11.19710 36892 ft 476 kts 74°
2026-05-07 05:26 51.07863 11.29709 36893 ft 476 kts 74°
2026-05-07 05:27 51.09909 11.39681 36874 ft 476 kts 74°
2026-05-07 05:27 51.11952 11.49692 36883 ft 476 kts 74°
2026-05-07 05:28 51.13990 11.59728 36877 ft 475 kts 74°
2026-05-07 05:28 51.15999 11.69676 36885 ft 475 kts 74°
2026-05-07 05:29 51.18012 11.79692 36882 ft 474 kts 74°
2026-05-07 05:29 51.20020 11.89730 36874 ft 474 kts 75°
2026-05-07 05:30 51.22002 11.99695 36881 ft 473 kts 75°
2026-05-07 05:30 51.23984 12.09711 36884 ft 473 kts 75°
2026-05-07 05:31 51.25961 12.19749 36886 ft 474 kts 75°
2026-05-07 05:31 51.27931 12.29810 36883 ft 474 kts 75°
2026-05-07 05:32 51.29882 12.39824 36885 ft 475 kts 75°
2026-05-07 05:32 51.31839 12.49919 36883 ft 476 kts 75°
2026-05-07 05:33 51.33792 12.60051 36885 ft 476 kts 75°
2026-05-07 05:33 51.35738 12.70198 36883 ft 477 kts 76°
2026-05-07 05:34 51.37668 12.80315 36893 ft 478 kts 76°
2026-05-07 05:34 51.39603 12.90517 36888 ft 479 kts 76°
2026-05-07 05:35 51.41529 13.00725 36894 ft 479 kts 76°
2026-05-07 05:35 51.43449 13.10952 36894 ft 480 kts 76°
2026-05-07 05:36 51.45365 13.21223 36888 ft 480 kts 76°
2026-05-07 05:36 51.47270 13.31485 36895 ft 480 kts 76°
2026-05-07 05:37 51.49166 13.41756 36893 ft 479 kts 76°
2026-05-07 05:37 51.51049 13.52013 36902 ft 479 kts 76°
2026-05-07 05:38 51.52921 13.62269 36895 ft 479 kts 77°
2026-05-07 05:38 51.54773 13.72475 36901 ft 479 kts 77°
2026-05-07 05:39 51.56632 13.82774 36887 ft 479 kts 77°
2026-05-07 05:39 51.58479 13.93063 36894 ft 479 kts 77°
2026-05-07 05:40 51.60314 14.03350 36902 ft 479 kts 77°
2026-05-07 05:40 51.62146 14.13677 36895 ft 480 kts 77°
2026-05-07 05:41 51.63958 14.23948 36887 ft 480 kts 77°
2026-05-07 05:41 51.65774 14.34301 36892 ft 480 kts 77°
2026-05-07 05:42 51.67577 14.44643 36895 ft 480 kts 77°
2026-05-07 05:42 51.69363 14.54942 36904 ft 480 kts 77°
2026-05-07 05:43 51.71153 14.65320 36890 ft 480 kts 77°
2026-05-07 05:43 51.72694 14.75790 36899 ft 480 kts 82°
2026-05-07 05:44 51.73924 14.86389 36901 ft 481 kts 83°
2026-05-07 05:44 51.75133 14.97021 36899 ft 482 kts 82°
2026-05-07 05:45 51.76369 15.07612 36890 ft 483 kts 82°
2026-05-07 05:45 51.77626 15.18296 36897 ft 484 kts 82°
2026-05-07 05:46 51.78878 15.28990 36902 ft 485 kts 82°
2026-05-07 05:46 51.80122 15.39723 36882 ft 486 kts 82°
2026-05-07 05:47 51.81347 15.50382 36908 ft 486 kts 82°
2026-05-07 05:47 51.82569 15.61120 36880 ft 486 kts 83°
2026-05-07 05:48 51.83780 15.71854 36905 ft 485 kts 83°
2026-05-07 05:48 51.84982 15.82591 36885 ft 485 kts 83°
2026-05-07 05:49 51.86173 15.93332 36897 ft 483 kts 83°
2026-05-07 05:49 51.87343 16.03965 36891 ft 482 kts 83°
2026-05-07 05:50 51.88505 16.14628 36889 ft 480 kts 83°
2026-05-07 05:50 51.89656 16.25285 36890 ft 480 kts 83°
2026-05-07 05:51 51.90797 16.35930 36900 ft 481 kts 83°
2026-05-07 05:51 51.92806 16.46213 36905 ft 489 kts 60°
2026-05-07 05:51 51.94831 16.50658 36884 ft 493 kts 46°
2026-05-07 05:52 51.97441 16.54247 36906 ft 492 kts 35°
2026-05-07 05:52 52.03051 16.60657 36899 ft 493 kts 35°
2026-05-07 05:53 52.08585 16.67256 36897 ft 494 kts 38°
2026-05-07 05:53 52.11037 16.71154 36893 ft 493 kts 54°
2026-05-07 05:53 52.12854 16.75843 36909 ft 490 kts 66°
2026-05-07 05:53 52.14014 16.81009 36900 ft 485 kts 81°
2026-05-07 05:54 52.14573 16.86407 36930 ft 482 kts 85°
2026-05-07 05:54 52.15508 16.97169 36905 ft 483 kts 85°
2026-05-07 05:55 52.16470 17.08034 36897 ft 485 kts 85°
2026-05-07 05:55 52.17477 17.18911 36868 ft 486 kts 84°
2026-05-07 05:55 52.17987 17.24365 36325 ft 494 kts 85°
2026-05-07 05:56 52.18503 17.29876 35782 ft 491 kts 85°
2026-05-07 05:56 52.19017 17.35381 35134 ft 492 kts 86°
2026-05-07 05:56 52.19529 17.40902 34497 ft 493 kts 86°
2026-05-07 05:56 52.20038 17.46440 33801 ft 495 kts 87°
2026-05-07 05:57 52.20546 17.52009 33017 ft 498 kts 87°
2026-05-07 05:57 52.21053 17.57604 32286 ft 498 kts 87°
2026-05-07 05:57 52.21557 17.63184 31569 ft 497 kts 87°
2026-05-07 05:57 52.22059 17.68768 30834 ft 498 kts 87°
2026-05-07 05:58 52.22559 17.74357 30084 ft 498 kts 87°
2026-05-07 05:58 52.23049 17.79878 29397 ft 496 kts 87°
2026-05-07 05:58 52.23542 17.85430 28790 ft 492 kts 86°
2026-05-07 05:58 52.24027 17.90935 28244 ft 487 kts 86°
2026-05-07 05:59 52.24504 17.96386 27660 ft 482 kts 86°
2026-05-07 05:59 52.24973 18.01772 27122 ft 477 kts 86°
2026-05-07 05:59 52.25435 18.07109 26568 ft 473 kts 86°
2026-05-07 05:59 52.25890 18.12412 26062 ft 470 kts 86°
2026-05-07 06:00 52.26340 18.17682 25477 ft 467 kts 86°
2026-05-07 06:00 52.26783 18.22903 24954 ft 463 kts 86°
2026-05-07 06:00 52.27215 18.28020 24431 ft 459 kts 86°
2026-05-07 06:00 52.27649 18.33181 23881 ft 457 kts 86°
2026-05-07 06:01 52.28078 18.38319 23315 ft 455 kts 86°
2026-05-07 06:01 52.28502 18.43419 22719 ft 452 kts 86°
2026-05-07 06:01 52.28921 18.48480 22161 ft 448 kts 86°
2026-05-07 06:01 52.29335 18.53503 21629 ft 444 kts 85°
2026-05-07 06:02 52.29743 18.58481 21094 ft 440 kts 85°
2026-05-07 06:02 52.30145 18.63422 20586 ft 436 kts 85°
2026-05-07 06:02 52.30541 18.68312 20072 ft 432 kts 85°
2026-05-07 06:02 52.30933 18.73172 19558 ft 429 kts 85°
2026-05-07 06:03 52.31319 18.77988 19058 ft 425 kts 85°
2026-05-07 06:03 52.31694 18.82701 18554 ft 422 kts 85°
2026-05-07 06:03 52.32071 18.87445 18030 ft 419 kts 85°
2026-05-07 06:03 52.32442 18.92151 17461 ft 416 kts 85°
2026-05-07 06:04 52.32808 18.96817 16937 ft 412 kts 85°
2026-05-07 06:04 52.33170 19.01439 16434 ft 408 kts 85°
2026-05-07 06:04 52.33527 19.06036 15940 ft 404 kts 85°
2026-05-07 06:04 52.33760 19.09048 15624 ft 402 kts 85°
2026-05-07 06:05 52.34109 19.13572 15204 ft 397 kts 85°
2026-05-07 06:05 52.34449 19.17988 15052 ft 385 kts 85°
2026-05-07 06:05 52.34778 19.22280 14875 ft 375 kts 85°
2026-05-07 06:05 52.35052 19.26471 14640 ft 367 kts 87°
2026-05-07 06:06 52.35258 19.30600 14398 ft 362 kts 88°
2026-05-07 06:06 52.35444 19.34692 14163 ft 359 kts 88°
2026-05-07 06:06 52.35628 19.38770 13933 ft 360 kts 88°
2026-05-07 06:06 52.35813 19.42825 13700 ft 364 kts 88°
2026-05-07 06:07 52.36007 19.46962 13428 ft 364 kts 88°
2026-05-07 06:07 52.36202 19.51074 13152 ft 359 kts 88°
2026-05-07 06:07 52.36395 19.55118 12900 ft 352 kts 88°
2026-05-07 06:07 52.36584 19.59076 12660 ft 346 kts 88°
2026-05-07 06:08 52.36767 19.62962 12430 ft 339 kts 88°
2026-05-07 06:08 52.36946 19.66773 12204 ft 333 kts 88°
2026-05-07 06:08 52.37121 19.70516 11990 ft 327 kts 88°
2026-05-07 06:08 52.37290 19.74188 11773 ft 321 kts 88°
2026-05-07 06:09 52.37459 19.77816 11567 ft 316 kts 86°
2026-05-07 06:09 52.37702 19.81367 11375 ft 313 kts 84°
2026-05-07 06:09 52.37991 19.84892 11168 ft 312 kts 84°
2026-05-07 06:09 52.38285 19.88396 10953 ft 309 kts 83°
2026-05-07 06:10 52.38573 19.91863 10714 ft 306 kts 84°
2026-05-07 06:10 52.38851 19.95281 10517 ft 300 kts 84°
2026-05-07 06:10 52.39116 19.98597 10323 ft 295 kts 84°
2026-05-07 06:10 52.39377 20.01899 10135 ft 290 kts 84°
2026-05-07 06:11 52.39632 20.05147 9938 ft 285 kts 84°
2026-05-07 06:11 52.39882 20.08341 9743 ft 280 kts 84°
2026-05-07 06:11 52.40125 20.11474 9547 ft 275 kts 84°
2026-05-07 06:11 52.40364 20.14565 9350 ft 270 kts 84°
2026-05-07 06:12 52.40633 20.17579 9151 ft 266 kts 75°
2026-05-07 06:12 52.41508 20.20189 9006 ft 261 kts 45°
2026-05-07 06:12 52.42932 20.22000 8864 ft 261 kts 29°
2026-05-07 06:12 52.44507 20.23446 8694 ft 265 kts 27°
2026-05-07 06:13 52.46139 20.24898 8486 ft 267 kts 27°
2026-05-07 06:13 52.47754 20.26361 8280 ft 263 kts 28°
2026-05-07 06:13 52.49281 20.27948 8084 ft 259 kts 44°
2026-05-07 06:13 52.50214 20.30406 7959 ft 254 kts 73°
2026-05-07 06:14 52.50589 20.33234 7804 ft 255 kts 82°
2026-05-07 06:14 52.50856 20.36125 7629 ft 258 kts 83°
2026-05-07 06:14 52.51116 20.39062 7450 ft 260 kts 83°
2026-05-07 06:14 52.51382 20.42011 7268 ft 261 kts 83°
2026-05-07 06:15 52.51653 20.44961 7094 ft 261 kts 83°
2026-05-07 06:15 52.51923 20.47860 6909 ft 257 kts 83°
2026-05-07 06:15 52.52194 20.50740 6740 ft 253 kts 83°
2026-05-07 06:15 52.52464 20.53582 6563 ft 251 kts 83°
2026-05-07 06:16 52.52731 20.56414 6401 ft 251 kts 83°
2026-05-07 06:16 52.52998 20.59245 6240 ft 251 kts 83°
2026-05-07 06:16 52.53265 20.62083 6063 ft 251 kts 83°
2026-05-07 06:16 52.53531 20.64920 5885 ft 252 kts 83°
2026-05-07 06:17 52.53795 20.67760 5709 ft 252 kts 83°
2026-05-07 06:17 52.54060 20.70609 5537 ft 253 kts 83°
2026-05-07 06:17 52.54325 20.73472 5363 ft 253 kts 83°
2026-05-07 06:17 52.54590 20.76333 5192 ft 253 kts 83°
2026-05-07 06:18 52.54854 20.79190 5019 ft 253 kts 83°
2026-05-07 06:18 52.55117 20.82043 4853 ft 252 kts 83°
2026-05-07 06:18 52.55376 20.84868 4678 ft 252 kts 83°
2026-05-07 06:18 52.55636 20.87712 4503 ft 251 kts 83°
2026-05-07 06:19 52.55821 20.90550 4310 ft 248 kts 97°
2026-05-07 06:19 52.55283 20.93144 4150 ft 237 kts 130°
2026-05-07 06:19 52.54088 20.94891 3999 ft 227 kts 156°
2026-05-07 06:19 52.52646 20.95694 3876 ft 212 kts 172°
2026-05-07 06:20 52.51227 20.96077 3711 ft 202 kts 175°
2026-05-07 06:20 52.49860 20.96281 3546 ft 193 kts 191°
2026-05-07 06:20 52.48665 20.95500 3460 ft 187 kts 219°
2026-05-07 06:20 52.47883 20.93836 3368 ft 186 kts 247°
2026-05-07 06:21 52.47619 20.91804 3228 ft 177 kts 259°
2026-05-07 06:21 52.47433 20.89853 3109 ft 171 kts 259°
2026-05-07 06:21 52.47257 20.87943 2990 ft 166 kts 260°
2026-05-07 06:21 52.47097 20.86110 2864 ft 160 kts 259°
2026-05-07 06:22 52.46930 20.84294 2654 ft 162 kts 259°
2026-05-07 06:22 52.46589 20.80678 2168 ft 154 kts 259°
2026-05-07 06:22 52.46431 20.79009 1924 ft 143 kts 260°
2026-05-07 06:23 52.46284 20.77470 1717 ft 136 kts 261°
2026-05-07 06:23 52.46134 20.75891 1517 ft 145 kts 261°
2026-05-07 06:23 52.45986 20.74323 1296 ft 135 kts 262°
2026-05-07 06:23 52.45846 20.72852 1078 ft 125 kts 263°
2026-05-07 06:24 52.45717 20.71467 898 ft 122 kts 263°
2026-05-07 06:24 52.45586 20.70093 724 ft 125 kts 264°
2026-05-07 06:24 52.45435 20.68654 539 ft 130 kts 263°
2026-05-07 06:24 52.45306 20.67232 370 ft 121 kts 264°
2026-05-07 06:25 52.45202 20.66004 338 ft 84 kts 261°
2026-05-07 06:25 52.45147 20.65411 338 ft 28 kts 261°
2026-05-07 06:25 52.45115 20.65099 337 ft 27 kts 260°
2026-05-07 06:25 52.45088 20.64822 335 ft 18 kts 261°
2026-05-07 06:26 52.45071 20.64637 337 ft 16 kts 261°
2026-05-07 06:26 52.45055 20.64465 334 ft 13 kts 261°
2026-05-07 06:26 52.45009 20.64390 336 ft 10 kts 189°
2026-05-07 06:26 52.44939 20.64384 335 ft 10 kts 182°
2026-05-07 06:27 52.44872 20.64380 337 ft 10 kts 182°
2026-05-07 06:27 52.44806 20.64375 333 ft 9 kts 182°
2026-05-07 06:27 52.44742 20.64371 335 ft 9 kts 179°
2026-05-07 06:27 52.44714 20.64449 337 ft 9 kts 82°
2026-05-07 06:28 52.44723 20.64548 333 ft 9 kts 82°
2026-05-07 06:28 52.44731 20.64644 337 ft 8 kts 82°
2026-05-07 06:28 52.44740 20.64737 336 ft 8 kts 80°
2026-05-07 06:28 52.44750 20.64827 337 ft 8 kts 80°
2026-05-07 06:29 52.44759 20.64913 337 ft 8 kts 81°
2026-05-07 06:29 52.44767 20.64998 333 ft 7 kts 81°
2026-05-07 06:29 52.44754 20.65043 333 ft 2 kts 169°
2026-05-07 06:29 52.44738 20.65029 334 ft 3 kts 204°
2026-05-07 06:30 52.44723 20.65019 334 ft 2 kts 204°
2026-05-07 06:30 52.44723 20.65018 334 ft 0 kts 204°